When you browse on this site, cookies collect data to enhance your experience and personalize the content and advertising you see.
Visit our Privacy Policy to learn more. By continuing to use the site, you agree to this use of cookies and data.

Meteo pe oră la Bijeljina

Astăzi, 16 Iulie, Joi

Timp Temperatura Precipitaţii Vânt Presiune Umiditate
00:00 +19°C° 0 mm 1 m/s 752 mmHg 83%
01:00 +18°C° 0 mm 1 m/s 752 mmHg 85%
02:00 +18°C° 0 mm 1 m/s 752 mmHg 86%
03:00 +16°C° 0 mm 1 m/s 752 mmHg 87%
04:00 +16°C° 0 mm 1 m/s 752 mmHg 88%
05:00 +18°C° 0 mm 1 m/s 752 mmHg 84%
06:00 +20°C° 0 mm 1 m/s 753 mmHg 81%
07:00 +21°C° 0 mm 1 m/s 753 mmHg 77%
08:00 +23°C° 0.2 mm 1 m/s 753 mmHg 72%
09:00 +24°C° 0.2 mm 2 m/s 753 mmHg 68%
10:00 +26°C° 0.2 mm 2 m/s 753 mmHg 63%
11:00 +26°C° 0.7 mm 2 m/s 752 mmHg 61%
12:00 +27°C° 0.7 mm 2 m/s 752 mmHg 59%
13:00 +27°C° 0.7 mm 2 m/s 752 mmHg 56%
14:00 +27°C° 0 mm 1 m/s 752 mmHg 55%
15:00 +27°C° 0 mm 1 m/s 751 mmHg 53%
16:00 +28°C° 0 mm 1 m/s 751 mmHg 51%
17:00 +26°C° 0 mm 1 m/s 751 mmHg 57%
18:00 +24°C° 0 mm 1 m/s 751 mmHg 64%
19:00 +23°C° 0 mm 1 m/s 752 mmHg 70%
20:00 +21°C° 0.1 mm 1 m/s 752 mmHg 73%
21:00 +20°C° 0.1 mm 1 m/s 752 mmHg 75%
22:00 +19°C° 0.1 mm 1 m/s 752 mmHg 78%
23:00 +19°C° 0 mm 1 m/s 752 mmHg 79%

Mâine, 17 Iulie, Vineri

Timp Temperatura Precipitaţii Vânt Presiune Umiditate
00:00 +17°C° 0 mm 0 m/s 752 mmHg 79%
01:00 +16°C° 0 mm 0 m/s 752 mmHg 80%
02:00 +16°C° 0 mm 0 m/s 752 mmHg 81%
03:00 +16°C° 0 mm 0 m/s 752 mmHg 81%
04:00 +15°C° 0 mm 0 m/s 752 mmHg 82%
05:00 +18°C° 0 mm 1 m/s 752 mmHg 80%
06:00 +19°C° 0 mm 1 m/s 752 mmHg 77%
07:00 +20°C° 0 mm 1 m/s 752 mmHg 75%
08:00 +20°C° 0 mm 2 m/s 752 mmHg 73%
09:00 +20°C° 0 mm 3 m/s 752 mmHg 71%
10:00 +20°C° 0 mm 4 m/s 752 mmHg 70%
11:00 +20°C° 0 mm 4 m/s 752 mmHg 72%
12:00 +20°C° 0 mm 5 m/s 752 mmHg 73%
13:00 +20°C° 0 mm 5 m/s 752 mmHg 75%
14:00 +18°C° 0.9 mm 4 m/s 752 mmHg 82%
15:00 +17°C° 0.9 mm 3 m/s 752 mmHg 88%
16:00 +16°C° 0.9 mm 3 m/s 752 mmHg 95%
17:00 +16°C° 3.1 mm 2 m/s 752 mmHg 96%
18:00 +15°C° 3.1 mm 2 m/s 752 mmHg 97%
19:00 +15°C° 3.1 mm 1 m/s 752 mmHg 98%
20:00 +15°C° 1.7 mm 1 m/s 752 mmHg 98%
21:00 +15°C° 1.7 mm 1 m/s 752 mmHg 98%
22:00 +15°C° 1.7 mm 1 m/s 753 mmHg 98%
23:00 +15°C° 0.3 mm 1 m/s 753 mmHg 97%

Poimâine, 18 Iulie, Sâmbătă

Timp Temperatura Precipitaţii Vânt Presiune Umiditate
00:00 +15°C° 0.3 mm 1 m/s 753 mmHg 97%
01:00 +15°C° 0.3 mm 1 m/s 753 mmHg 96%
02:00 +15°C° 0.1 mm 1 m/s 752 mmHg 96%
03:00 +14°C° 0.1 mm 1 m/s 752 mmHg 96%
04:00 +14°C° 0.1 mm 1 m/s 752 mmHg 95%
05:00 +15°C° 0 mm 1 m/s 752 mmHg 93%
06:00 +16°C° 0 mm 2 m/s 752 mmHg 92%
07:00 +16°C° 0 mm 2 m/s 752 mmHg 90%
08:00 +18°C° 0.1 mm 2 m/s 752 mmHg 85%
09:00 +19°C° 0.1 mm 2 m/s 752 mmHg 80%
10:00 +20°C° 0.1 mm 2 m/s 752 mmHg 75%
11:00 +21°C° 0.5 mm 2 m/s 752 mmHg 73%
12:00 +23°C° 0.5 mm 1 m/s 752 mmHg 71%
13:00 +23°C° 0.5 mm 1 m/s 751 mmHg 70%
14:00 +23°C° 0.6 mm 1 m/s 751 mmHg 70%
15:00 +23°C° 0.6 mm 1 m/s 751 mmHg 71%
16:00 +23°C° 0.6 mm 1 m/s 751 mmHg 72%
17:00 +22°C° 0.2 mm 1 m/s 751 mmHg 75%
18:00 +21°C° 0.2 mm 1 m/s 751 mmHg 79%
19:00 +18°C° 0.2 mm 0 m/s 751 mmHg 83%
20:00 +19°C° 0.4 mm 1 m/s 751 mmHg 85%
21:00 +18°C° 0.4 mm 1 m/s 751 mmHg 88%
22:00 +16°C° 0.4 mm 1 m/s 752 mmHg 90%
23:00 +16°C° 0.2 mm 1 m/s 752 mmHg 91%

19 Iulie, Duminică

Timp Temperatura Precipitaţii Vânt Presiune Umiditate
00:00 +15°C° 0.2 mm 2 m/s 752 mmHg 92%
01:00 +15°C° 0.2 mm 2 m/s 752 mmHg 92%
02:00 +15°C° 0 mm 2 m/s 752 mmHg 92%
03:00 +14°C° 0 mm 2 m/s 752 mmHg 92%
04:00 +14°C° 0 mm 1 m/s 752 mmHg 92%
05:00 +15°C° 0 mm 2 m/s 752 mmHg 90%
06:00 +16°C° 0 mm 2 m/s 752 mmHg 87%
07:00 +18°C° 0 mm 2 m/s 752 mmHg 85%
08:00 +19°C° 0 mm 2 m/s 752 mmHg 79%
09:00 +21°C° 0 mm 2 m/s 752 mmHg 73%
10:00 +24°C° 0 mm 2 m/s 752 mmHg 67%
11:00 +24°C° 0.3 mm 2 m/s 752 mmHg 64%
12:00 +25°C° 0.3 mm 2 m/s 752 mmHg 62%
13:00 +26°C° 0.3 mm 2 m/s 751 mmHg 60%
14:00 +26°C° 0.2 mm 2 m/s 751 mmHg 59%
15:00 +26°C° 0.2 mm 2 m/s 751 mmHg 59%
16:00 +26°C° 0.2 mm 2 m/s 751 mmHg 58%
17:00 +24°C° 0.2 mm 2 m/s 751 mmHg 65%
18:00 +23°C° 0.2 mm 2 m/s 751 mmHg 72%
19:00 +20°C° 0.2 mm 2 m/s 751 mmHg 79%
20:00 +20°C° 0.4 mm 1 m/s 752 mmHg 81%
21:00 +19°C° 0.4 mm 1 m/s 752 mmHg 84%
22:00 +18°C° 0.4 mm 1 m/s 752 mmHg 86%
23:00 +18°C° 0.3 mm 1 m/s 752 mmHg 88%

20 Iulie, Luni

Timp Temperatura Precipitaţii Vânt Presiune Umiditate
00:00 +18°C° 0.3 mm 1 m/s 752 mmHg 89%
01:00 +16°C° 0.3 mm 1 m/s 752 mmHg 91%
02:00 +16°C° 0.3 mm 1 m/s 752 mmHg 91%
03:00 +16°C° 0.3 mm 1 m/s 752 mmHg 92%
04:00 +16°C° 0.3 mm 2 m/s 752 mmHg 93%
05:00 +17°C° 0.2 mm 2 m/s 752 mmHg 92%
06:00 +18°C° 0.2 mm 1 m/s 752 mmHg 91%
07:00 +18°C° 0.2 mm 1 m/s 752 mmHg 91%
08:00 +20°C° 0 mm 1 m/s 752 mmHg 83%
09:00 +23°C° 0 mm 1 m/s 752 mmHg 76%
10:00 +25°C° 0 mm 1 m/s 753 mmHg 68%
11:00 +26°C° 0 mm 2 m/s 752 mmHg 65%
12:00 +27°C° 0 mm 2 m/s 752 mmHg 61%
13:00 +28°C° 0 mm 3 m/s 752 mmHg 58%
14:00 +28°C° 0.2 mm 3 m/s 752 mmHg 61%
15:00 +28°C° 0.2 mm 3 m/s 752 mmHg 64%
16:00 +28°C° 0.2 mm 3 m/s 752 mmHg 66%
17:00 +26°C° 0.2 mm 2 m/s 752 mmHg 71%
18:00 +25°C° 0.2 mm 2 m/s 752 mmHg 75%
19:00 +23°C° 0.2 mm 1 m/s 752 mmHg 80%
20:00 +23°C° 0 mm 1 m/s 753 mmHg 81%
21:00 +22°C° 0 mm 1 m/s 753 mmHg 83%
22:00 +20°C° 0 mm 2 m/s 753 mmHg 84%
23:00 +20°C° 0 mm 2 m/s 753 mmHg 85%

21 Iulie, Marţi

Timp Temperatura Precipitaţii Vânt Presiune Umiditate
00:00 +19°C° 0 mm 2 m/s 753 mmHg 85%
01:00 +19°C° 0 mm 2 m/s 753 mmHg 86%
02:00 +19°C° 0 mm 2 m/s 753 mmHg 86%
03:00 +19°C° 0 mm 1 m/s 754 mmHg 86%
04:00 +19°C° 0 mm 1 m/s 754 mmHg 86%
05:00 +21°C° 0 mm 1 m/s 754 mmHg 82%
06:00 +22°C° 0 mm 1 m/s 754 mmHg 79%
07:00 +24°C° 0 mm 1 m/s 754 mmHg 76%
08:00 +26°C° 0 mm 1 m/s 754 mmHg 70%
09:00 +27°C° 0 mm 1 m/s 754 mmHg 64%
10:00 +29°C° 0 mm 1 m/s 754 mmHg 58%
11:00 +30°C° 0 mm 1 m/s 754 mmHg 55%
12:00 +31°C° 0 mm 1 m/s 754 mmHg 52%
13:00 +31°C° 0 mm 1 m/s 754 mmHg 49%
14:00 +31°C° 0 mm 1 m/s 753 mmHg 49%
15:00 +31°C° 0 mm 1 m/s 753 mmHg 50%
16:00 +31°C° 0 mm 1 m/s 753 mmHg 50%
17:00 +29°C° 0 mm 1 m/s 753 mmHg 56%
18:00 +27°C° 0 mm 1 m/s 753 mmHg 62%
19:00 +26°C° 0 mm 1 m/s 753 mmHg 68%
20:00 +25°C° 0 mm 1 m/s 753 mmHg 69%
21:00 +24°C° 0 mm 1 m/s 753 mmHg 71%
22:00 +23°C° 0 mm 1 m/s 754 mmHg 73%
23:00 +22°C° 0 mm 1 m/s 754 mmHg 74%
Arată mai mult